Temperature
13 13 13 13 13 13 13 13 13 13 13 13 13 13 13 13 12 12 12 12 12 12 12 12 12 12 12 12 12 12 12 12 11 11 11 11 11 11
13 13 13 13 13 13 13 13 13 13 13 13 13 13 13 12 12 12 12 12 12 12 12 12 12 12 12 12 12 12 11 11 11 11 11 11 11 11
13 13 13 13 13 13 13 13 13 13 13 13 12 12 12 12 12 12 12 12 12 12 12 12 12 12 11 11 11 11 11 11 11 11 11 11 11 11
13 13 13 13 13 13 13 13 12 12 12 12 12 12 12 12 12 12 12 11 11 11 11 11 11 11 11 11 11 11 11 11 11 11 11 11 11 11
13 13 13 13 13 13 12 12 12 12 12 12 12 12 12 11 11 11 11 11 11 11 11 11 11 11 11 11 11 11 11 11 11 11 11 11 11 11
13 13 13 13 13 12 12 12 12 12 12 12 12 11 11 11 11 11 11 11 11 11 11 11 11 11 11 11 11 11 11 11 11 11 11 11 10 10
12 12 12 12 12 12 12 12 12 12 12 11 11 11 11 11 11 11 11 11 11 11 11 11 11 11 11 11 11 10 10 10 10 10 10 10 10 10
12 12 12 12 12 12 12 12 12 12 11 11 11 11 11 11 11 11 11 10 10 10 10 10 10 10 11 10 10 10 10 10 10 10 10 10 10 10
11 11 11 11 12 12 12 12 12 11 11 11 11 11 11 11 11 10 11 10 10 10 10 10 10 10 10 10 10 10 10 10 10 10 10 10 9 9
11 11 11 11 11 11 11 11 11 11 11 11 11 11 11 11 10 10 10 10 10 10 10 10 10 10 10 10 10 10 10 9 9 9 9 9 9 9
11 11 10 11 11 11 11 11 11 11 11 11 11 11 11 10 10 10 10 10 9 10 10 9 9 9 9 9 10 9 9 9 9 9 9 9 9 9
10 10 10 10 10 10 10 10 10 10 10 10 10 10 10 10 10 10 10 9 9 9 9 9 9 9 9 9 9 9 9 9 9 9 9 9 8 8
10 10 10 10 10 10 10 10 10 10 10 10 10 10 10 10 10 10 9 9 9 9 9 9 9 9 9 9 9 9 9 9 9 9 8 8 8 8
9 9 9 9 9 9 9 9 9 9 9 9 9 9 9 9 9 9 9 9 9 9 9 9 8 8 8 8 8 8 8 8 8 8 8 8 8 8
9 9 9 9 9 9 9 9 9 9 9 9 9 9 9 9 9 9 9 9 9 8 8 8 8 8 8 8 8 8 8 8 8 8 8 8 8 8
8 8 8 8 8 8 8 8 8 8 8 8 8 8 8 8 8 8 8 8 8 8 8 8 8 8 8 8 8 8 8 8 8 7 7 7 7 7
8 8 8 8 8 7 7 7 7 8 7 7 7 7 7 8 8 8 8 8 8 8 8 8 7 7 7 7 7 7 7 7 7 7 7 7 7 7
7 7 7 7 7 7 7 7 7 7 7 7 7 7 7 7 7 7 7 7 7 7 7 7 7 7 7 7 7 7 7 7 7 7 6 6 7 7
7 7 7 6 6 6 6 6 6 6 6 6 6 6 6 6 6 7 7 7 7 7 7 7 7 6 6 6 7 7 7 7 6 6 6 6 6 6
6 6 6 6 6 6 6 6 6 6 6 6 6 6 6 6 6 6 6 6 6 6 6 6 6 6 6 6 6 6 6 6 6 6 6 6 6 6
5 5 5 5 5 5 5 5 6 6 5 5 5 6 6 6 6 6 6 6 6 5 5 6 6 6 5 5 5 6 6 6 5 5 5 5 5 5
5 5 5 5 5 5 5 5 5 5 5 5 5 5 5 5 5 5 5 5 5 5 5 5 5 5 5 5 5 5 5 5 5 5 5 5 5 5
4 5 5 4 4 5 5 5 5 5 5 5 5 5 5 5 5 5 5 5 4 4 4 4 4 4 4 4 4 5 5 5 4 4 4 4 4 4
Wind_Speed
3 2 2 2 1 1 1 2 2 1 2 1 0 1 4 6 7 7 6 5 5 3 2 2 1 1 2 2 2 2 2 3 3 3 3 3 4 4
2 3 2 2 2 1 1 1 1 2 2 1 1 1 2 3 6 6 6 6 6 4 3 3 2 1 0 1 1 1 1 2 2 3 2 2 3 3
3 3 3 3 2 2 1 1 1 1 2 1 1 1 1 1 3 4 5 5 6 6 5 4 3 2 2 1 1 1 0 0 1 1 1 1 2 2
4 4 4 3 3 2 2 2 2 2 3 2 2 2 3 3 3 3 3 4 5 5 6 6 5 4 3 3 3 2 2 2 1 1 0 1 0 1
3 3 3 3 3 2 2 2 2 2 2 3 3 2 2 2 2 2 3 3 4 5 6 6 6 6 5 5 4 4 3 2 2 2 1 0 0 0
3 3 3 3 4 3 3 3 2 2 1 1 2 2 2 2 2 2 2 2 2 3 5 6 6 7 7 6 6 5 5 4 3 3 2 1 1 1
2 3 3 2 3 3 3 3 3 2 2 2 2 2 2 2 3 3 2 2 2 2 2 3 5 4 6 7 7 8 7 6 5 4 3 2 2 2
2 3 3 2 2 3 4 4 5 4 4 3 3 3 3 3 2 2 2 2 2 2 3 3 3 3 5 6 8 9 9 8 7 6 5 4 4 3
2 2 2 2 1 1 2 3 3 4 6 5 4 5 4 4 4 3 3 3 3 3 2 3 2 3 4 7 9 10 10 9 8 7 6 6 5 4
3 2 2 2 1 1 1 2 3 3 4 4 4 5 4 4 5 5 5 3 2 1 3 2 2 2 2 5 9 11 11 10 9 8 8 7 5 5
2 1 1 1 2 1 0 2 2 4 4 5 5 4 5 4 3 1 2 2 2 3 2 2 2 2 1 2 6 10 11 10 10 9 8 8 7 5
2 1 2 2 2 1 1 2 3 4 3 3 3 3 3 4 4 4 4 3 2 2 2 2 2 2 1 2 2 5 6 8 9 9 8 8 7 5
2 2 2 2 2 2 2 2 4 4 2 2 2 2 2 2 3 3 3 4 4 4 3 3 2 2 2 2 1 2 4 4 6 6 8 9 8 7
2 2 2 3 4 4 3 5 5 3 1 1 1 2 3 3 4 4 4 4 4 4 4 4 3 3 2 2 2 2 2 3 5 4 6 7 8 9
2 3 3 4 3 3 4 5 3 1 1 2 3 3 3 4 3 2 2 3 2 3 4 4 3 3 3 3 3 2 2 2 3 4 4 5 4 4
2 2 3 3 2 2 3 3 2 1 2 3 3 3 2 2 2 2 2 2 1 2 3 5 4 4 4 3 3 3 3 3 3 3 3 3 4 6
2 1 1 1 1 1 1 2 1 1 2 2 2 2 2 2 3 2 2 2 3 3 3 2 3 3 3 3 3 4 3 3 3 4 4 4 4 6
1 1 2 2 2 2 2 2 2 2 2 2 3 3 3 3 3 2 2 3 4 4 3 3 1 1 1 2 4 5 4 4 3 4 3 4 5 5
0 2 2 2 2 2 2 2 3 3 3 2 3 3 3 3 3 3 3 3 4 4 4 3 3 3 4 5 4 6 5 4 3 3 4 4 5 5
1 2 2 2 2 2 2 2 3 3 3 3 3 3 3 3 3 4 4 4 4 4 3 3 4 5 6 6 4 3 7 5 4 4 4 3 3 3
2 2 2 2 2 2 2 3 3 3 3 2 3 3 3 3 4 4 4 5 5 4 5 6 6 6 4 2 3 3 3 7 6 4 4 2 2 2
2 2 2 2 2 2 2 3 3 3 3 3 3 3 3 3 4 4 4 4 4 5 5 4 3 2 2 4 5 5 3 3 4 4 4 5 4 4
2 2 2 2 2 2 2 3 3 3 3 3 3 3 3 3 3 3 4 4 4 4 4 3 2 2 3 4 4 4 4 3 2 2 3 5 6 7
Wind_Direction
209 212 206 223 239 238 172 155 171 221 249 233 213 213 157 160 169 170 168 167 167 176 177 159 107 62 33 24 28 31 39 44 45 45 48 47 54 60
201 213 217 206 209 212 197 215 194 193 231 232 225 200 172 174 176 175 175 173 185 192 194 190 187 169 104 49 68 53 49 47 42 40 42 43 48 59
201 213 228 206 196 205 196 205 233 175 211 271 246 184 179 183 151 178 179 166 186 196 199 198 199 202 201 199 181 178 162 36 32 24 33 42 51 56
216 209 220 214 203 206 199 208 214 211 193 217 233 209 205 190 171 185 185 180 182 201 205 205 208 207 206 209 213 217 225 234 240 263 314 324 13 51
236 225 224 209 205 206 203 217 218 224 196 198 220 215 210 189 178 201 191 178 196 197 207 211 213 213 213 216 220 220 221 223 227 222 215 234 298 330
257 244 234 217 210 204 208 214 204 212 221 204 211 212 204 197 175 197 215 214 214 195 198 207 215 220 221 225 230 229 224 217 210 204 200 211 237 242
272 266 248 226 216 208 207 206 198 201 209 207 218 223 217 190 207 206 204 216 224 201 194 200 196 200 215 227 231 230 225 218 215 212 211 214 225 228
259 271 264 252 233 217 209 200 196 202 205 207 219 218 226 213 205 204 196 200 251 228 192 222 186 206 201 206 216 215 215 214 211 209 209 213 221 224
255 257 273 272 263 227 228 214 220 228 213 203 212 225 221 214 205 213 210 203 222 218 176 237 225 220 206 208 210 206 207 207 208 206 206 212 218 227
257 250 251 263 288 271 244 229 234 242 232 218 219 228 221 214 206 208 207 205 222 216 162 219 236 235 226 201 209 206 207 207 208 207 207 210 215 223
263 274 288 267 299 6 274 244 249 257 246 235 223 225 225 223 196 171 187 179 239 251 205 191 220 230 238 219 207 206 205 207 209 208 210 213 215 214
296 292 310 313 326 323 266 244 255 260 252 251 248 244 230 226 216 196 189 190 206 236 225 184 203 178 251 257 198 195 202 208 207 208 210 212 209 197
300 305 314 336 324 303 285 258 258 268 252 219 219 226 231 227 222 210 197 194 206 229 212 170 189 193 196 228 246 207 193 198 201 209 214 216 214 198
276 283 299 327 320 301 286 286 278 277 250 220 225 229 226 228 228 222 211 206 208 210 191 166 186 195 207 232 242 231 213 202 193 199 205 215 218 214
292 311 313 304 298 292 285 289 292 272 226 227 235 238 231 230 226 222 219 203 209 208 201 191 191 198 196 217 226 213 220 233 205 194 191 193 200 203
300 312 314 311 293 287 292 291 288 269 234 230 238 250 251 237 230 216 213 200 210 254 239 219 201 195 212 223 213 220 210 215 220 206 195 201 204 202
278 288 299 314 307 300 296 282 274 287 271 255 243 251 255 240 242 229 210 200 210 225 245 260 234 205 197 199 216 224 218 230 226 212 204 222 226 214
276 275 273 271 260 254 260 266 265 263 264 264 251 242 244 244 245 243 220 215 224 228 226 224 219 278 317 281 222 218 223 229 226 215 203 215 236 228
284 266 270 267 270 258 251 250 254 259 257 258 256 251 248 246 247 245 234 233 235 235 228 208 197 194 227 252 260 219 216 224 215 218 221 222 232 229
258 260 265 269 266 264 261 263 265 269 269 267 264 263 253 248 247 244 239 234 236 242 243 227 213 213 221 235 240 246 219 212 212 226 234 236 244 232
276 276 276 274 273 269 264 261 262 264 267 270 268 267 265 258 251 247 244 245 242 241 238 236 235 225 230 218 246 252 242 221 216 212 210 214 238 239
262 262 269 270 273 274 273 271 270 272 270 263 262 264 266 262 253 249 249 249 246 246 245 246 241 222 215 226 243 247 246 244 236 236 224 213 201 216
263 265 268 270 271 276 283 279 274 274 270 268 269 268 268 270 264 254 251 250 251 252 252 249 240 228 228 230 242 251 244 234 215 219 258 266 252 246
Height
1532 1533 1534 1535 1536 1537 1537 1538 1539 1538 1538 1538 1538 1538 1538 1538 1538 1538 1537 1537 1537 1536 1535 1535 1534 1534 1533 1533 1533 1533 1533 1532 1532 1532 1532 1532 1531 1531
1530 1531 1531 1532 1533 1534 1535 1536 1536 1536 1536 1536 1536 1536 1536 1536 1536 1536 1536 1535 1535 1535 1534 1534 1533 1532 1532 1532 1532 1532 1531 1531 1531 1531 1531 1531 1531 1531
1527 1528 1529 1530 1531 1531 1532 1533 1533 1534 1533 1534 1534 1534 1534 1534 1534 1534 1534 1534 1533 1533 1533 1532 1531 1531 1531 1530 1530 1530 1530 1530 1530 1530 1530 1530 1530 1530
1524 1525 1526 1527 1528 1528 1529 1530 1531 1531 1531 1531 1531 1532 1532 1532 1532 1532 1532 1532 1531 1531 1531 1531 1530 1530 1529 1529 1529 1529 1529 1529 1529 1529 1528 1529 1528 1529
1522 1522 1523 1524 1524 1525 1526 1527 1528 1528 1529 1529 1528 1529 1530 1530 1530 1530 1530 1529 1529 1529 1529 1529 1528 1528 1527 1527 1527 1527 1527 1527 1527 1527 1527 1527 1527 1527
1518 1519 1520 1521 1521 1522 1523 1524 1524 1525 1525 1526 1526 1526 1527 1527 1527 1527 1527 1527 1527 1527 1526 1526 1526 1526 1525 1525 1525 1525 1525 1525 1525 1525 1525 1525 1525 1526
1515 1516 1517 1518 1518 1519 1520 1520 1521 1521 1522 1522 1522 1523 1523 1524 1524 1524 1524 1524 1524 1524 1524 1524 1524 1523 1523 1523 1523 1523 1523 1523 1522 1522 1523 1523 1523 1524
1512 1512 1513 1514 1515 1515 1516 1517 1517 1518 1518 1518 1518 1519 1519 1520 1521 1521 1521 1521 1521 1522 1521 1521 1521 1521 1521 1521 1521 1521 1520 1520 1520 1520 1520 1521 1521 1521
1509 1509 1510 1511 1511 1512 1512 1513 1514 1514 1515 1515 1515 1515 1515 1516 1517 1517 1517 1517 1517 1518 1518 1517 1518 1517 1518 1518 1518 1518 1518 1518 1518 1518 1518 1518 1519 1519
1505 1506 1506 1507 1507 1508 1508 1509 1509 1510 1511 1511 1511 1511 1512 1513 1513 1514 1514 1514 1514 1514 1515 1514 1514 1514 1515 1515 1515 1516 1516 1515 1516 1516 1516 1516 1516 1517
1502 1502 1503 1503 1503 1504 1504 1504 1505 1505 1506 1507 1507 1507 1508 1509 1509 1510 1510 1509 1509 1510 1511 1511 1511 1511 1511 1511 1512 1512 1513 1513 1513 1513 1513 1513 1514 1514
1498 1498 1499 1499 1500 1500 1500 1500 1500 1501 1502 1502 1502 1503 1504 1504 1505 1505 1505 1506 1505 1505 1506 1507 1507 1508 1507 1507 1508 1509 1509 1509 1509 1510 1510 1510 1510 1511
1495 1495 1495 1496 1496 1496 1497 1496 1496 1497 1497 1498 1498 1498 1499 1500 1500 1500 1501 1502 1502 1501 1503 1503 1503 1504 1504 1504 1504 1505 1505 1505 1505 1506 1506 1507 1507 1507
1491 1492 1492 1492 1492 1492 1492 1492 1493 1493 1493 1493 1494 1494 1494 1495 1495 1496 1496 1497 1497 1498 1499 1499 1499 1500 1500 1500 1500 1500 1501 1501 1502 1502 1502 1503 1503 1503
1488 1488 1488 1488 1488 1488 1488 1488 1489 1489 1489 1489 1489 1489 1490 1491 1491 1492 1492 1492 1493 1493 1494 1495 1495 1496 1496 1496 1496 1497 1497 1497 1497 1498 1498 1498 1498 1499
1485 1485 1485 1484 1484 1484 1484 1484 1484 1484 1484 1484 1485 1485 1486 1487 1487 1487 1487 1488 1488 1488 1489 1490 1491 1491 1491 1492 1492 1492 1493 1493 1493 1493 1493 1493 1494 1494
1481 1481 1481 1480 1480 1479 1480 1480 1480 1480 1480 1480 1481 1481 1481 1481 1482 1483 1483 1483 1483 1483 1484 1485 1486 1487 1487 1488 1487 1487 1488 1488 1488 1489 1489 1488 1488 1489
1478 1477 1477 1476 1476 1476 1476 1476 1476 1476 1476 1476 1476 1477 1477 1477 1477 1478 1479 1479 1478 1478 1479 1480 1481 1481 1482 1482 1483 1482 1482 1483 1483 1484 1484 1483 1483 1484
1474 1474 1474 1473 1473 1473 1473 1473 1472 1473 1473 1472 1472 1472 1472 1473 1473 1473 1473 1474 1474 1474 1474 1475 1476 1476 1476 1475 1476 1477 1477 1478 1478 1478 1478 1478 1478 1479
1471 1471 1471 1470 1470 1470 1469 1469 1469 1469 1469 1468 1468 1468 1468 1468 1468 1468 1469 1469 1469 1469 1469 1469 1470 1470 1471 1471 1471 1471 1472 1473 1473 1473 1473 1473 1473 1474
1467 1467 1467 1467 1467 1466 1466 1465 1465 1464 1464 1464 1463 1463 1463 1463 1463 1463 1463 1464 1464 1464 1463 1463 1464 1465 1466 1467 1467 1466 1467 1467 1467 1468 1468 1468 1468 1468
1464 1464 1464 1464 1463 1463 1462 1462 1461 1460 1460 1459 1459 1458 1458 1458 1458 1458 1458 1458 1458 1458 1458 1458 1459 1460 1460 1460 1460 1460 1461 1462 1462 1462 1463 1463 1463 1462
1462 1461 1461 1460 1460 1459 1458 1457 1457 1456 1455 1455 1454 1454 1453 1453 1453 1453 1453 1453 1453 1452 1453 1453 1453 1454 1454 1455 1455 1455 1456 1456 1456 1456 1457 1458 1458 1458